sat.trackr.live / text

‹ back to catalog

STARLINK-36710

NORAD 67971 · 2026-038L

PAYLOAD ACTIVE UNKNOWN

§ Identity

Operator
Country
US
Launch date
2026-02-25
Launch site
AFWTR
Launch vehicle
Mass (kg)
RCS (m²)

Purposes: comms

External: N2YO · Heavens-Above · Gunter

§ Orbital elements

Epoch: 2026-05-24T23:59:07.646784Z

Period
93.91 min
Inclination
97.2836°
Eccentricity
0.0001763
Mean motion
15.33453084 rev/d
Perigee alt
464.3 km
Apogee alt
466.7 km
Semi-major
6,843.7 km
B*
4.5873e-4
RAAN
155.0272°
Arg perigee
106.0382°
Mean anomaly
254.1055°
Rev number
1,493

§ Raw data

STARLINK-367101 67971U 26038L   26144.99939406  .00014768  00000+0  45873-3 0  99902 67971  97.2836 155.0272 0001763 106.0382 254.1055 15.33453084 14931

JSON: /api/v1/satellites/67971 · /tle

For live sub-satellite position, see the globe view (requires WebGL).

§ Visibility from observer

Set your observer location to see the next 7 days of passes ≥ 10°. The values pass through the URL so the page stays shareable.

No JS? Fill the form by hand. The geolocation button needs JavaScript.